When you browse on this site, cookies collect data to enhance your experience and personalize the content and advertising you see.
Visit our Privacy Policy to learn more. By continuing to use the site, you agree to this use of cookies and data.

Meteo pe oră la Chorzów

Astăzi, 9 Iulie, Joi

Timp Temperatura Precipitaţii Vânt Presiune Umiditate
00:00 +13°C° 0 mm 2 m/s 736 mmHg 94%
01:00 +13°C° 0 mm 2 m/s 736 mmHg 94%
02:00 +12°C° 0 mm 1 m/s 736 mmHg 94%
03:00 +12°C° 0 mm 1 m/s 736 mmHg 94%
04:00 +12°C° 0 mm 1 m/s 736 mmHg 94%
05:00 +13°C° 0 mm 1 m/s 736 mmHg 90%
06:00 +14°C° 0 mm 1 m/s 736 mmHg 85%
07:00 +16°C° 0 mm 1 m/s 736 mmHg 80%
08:00 +18°C° 0 mm 1 m/s 736 mmHg 73%
09:00 +20°C° 0 mm 1 m/s 736 mmHg 65%
10:00 +20°C° 0 mm 2 m/s 737 mmHg 58%
11:00 +21°C° 0 mm 2 m/s 736 mmHg 56%
12:00 +22°C° 0 mm 3 m/s 736 mmHg 53%
13:00 +24°C° 0 mm 3 m/s 736 mmHg 51%
14:00 +22°C° 0 mm 4 m/s 736 mmHg 54%
15:00 +22°C° 0 mm 4 m/s 735 mmHg 58%
16:00 +22°C° 0 mm 4 m/s 735 mmHg 61%
17:00 +21°C° 0 mm 4 m/s 735 mmHg 67%
18:00 +20°C° 0 mm 3 m/s 734 mmHg 73%
19:00 +19°C° 0 mm 3 m/s 734 mmHg 79%
20:00 +19°C° 0.2 mm 2 m/s 734 mmHg 82%
21:00 +19°C° 0.2 mm 2 m/s 734 mmHg 86%
22:00 +18°C° 0.2 mm 2 m/s 734 mmHg 89%
23:00 +18°C° 0.3 mm 2 m/s 734 mmHg 90%

Mâine, 10 Iulie, Vineri

Timp Temperatura Precipitaţii Vânt Presiune Umiditate
00:00 +18°C° 0.3 mm 2 m/s 734 mmHg 91%
01:00 +18°C° 0.3 mm 2 m/s 734 mmHg 91%
02:00 +17°C° 0.1 mm 2 m/s 734 mmHg 91%
03:00 +17°C° 0.1 mm 2 m/s 733 mmHg 90%
04:00 +17°C° 0.1 mm 2 m/s 733 mmHg 90%
05:00 +18°C° 0 mm 3 m/s 733 mmHg 86%
06:00 +19°C° 0 mm 4 m/s 733 mmHg 82%
07:00 +21°C° 0 mm 4 m/s 733 mmHg 77%
08:00 +23°C° 0 mm 4 m/s 734 mmHg 69%
09:00 +26°C° 0 mm 5 m/s 734 mmHg 61%
10:00 +28°C° 0 mm 5 m/s 734 mmHg 53%
11:00 +29°C° 0 mm 5 m/s 734 mmHg 50%
12:00 +30°C° 0 mm 6 m/s 733 mmHg 47%
13:00 +32°C° 0 mm 6 m/s 733 mmHg 44%
14:00 +32°C° 0 mm 6 m/s 733 mmHg 45%
15:00 +32°C° 0 mm 6 m/s 733 mmHg 46%
16:00 +32°C° 0 mm 6 m/s 732 mmHg 47%
17:00 +29°C° 0 mm 5 m/s 732 mmHg 52%
18:00 +28°C° 0 mm 4 m/s 732 mmHg 56%
19:00 +26°C° 0 mm 3 m/s 731 mmHg 61%
20:00 +25°C° 0.1 mm 3 m/s 732 mmHg 67%
21:00 +23°C° 0.1 mm 2 m/s 732 mmHg 74%
22:00 +21°C° 0.1 mm 2 m/s 732 mmHg 80%
23:00 +20°C° 0.2 mm 2 m/s 733 mmHg 82%

Poimâine, 11 Iulie, Sâmbătă

Timp Temperatura Precipitaţii Vânt Presiune Umiditate
00:00 +21°C° 0.2 mm 1 m/s 733 mmHg 85%
01:00 +20°C° 0.2 mm 1 m/s 733 mmHg 87%
02:00 +19°C° 0.6 mm 2 m/s 733 mmHg 89%
03:00 +19°C° 0.6 mm 2 m/s 733 mmHg 91%
04:00 +19°C° 0.6 mm 2 m/s 734 mmHg 93%
05:00 +18°C° 0.9 mm 3 m/s 734 mmHg 93%
06:00 +18°C° 0.9 mm 3 m/s 734 mmHg 92%
07:00 +17°C° 0.9 mm 4 m/s 735 mmHg 92%
08:00 +17°C° 1.2 mm 4 m/s 735 mmHg 92%
09:00 +15°C° 1.2 mm 4 m/s 735 mmHg 92%
10:00 +15°C° 1.2 mm 4 m/s 736 mmHg 91%
11:00 +15°C° 0.3 mm 4 m/s 736 mmHg 90%
12:00 +14°C° 0.3 mm 4 m/s 737 mmHg 89%
13:00 +14°C° 0.3 mm 4 m/s 737 mmHg 87%
14:00 +14°C° 0.9 mm 4 m/s 737 mmHg 88%
15:00 +13°C° 0.9 mm 3 m/s 737 mmHg 90%
16:00 +13°C° 0.9 mm 3 m/s 737 mmHg 91%
17:00 +13°C° 1.9 mm 3 m/s 738 mmHg 91%
18:00 +13°C° 1.9 mm 2 m/s 738 mmHg 92%
19:00 +13°C° 1.9 mm 2 m/s 738 mmHg 93%
20:00 +13°C° 1.7 mm 2 m/s 738 mmHg 93%
21:00 +13°C° 1.7 mm 2 m/s 739 mmHg 93%
22:00 +13°C° 1.7 mm 2 m/s 739 mmHg 93%
23:00 +13°C° 0.4 mm 2 m/s 739 mmHg 92%

12 Iulie, Duminică

Timp Temperatura Precipitaţii Vânt Presiune Umiditate
00:00 +13°C° 0.4 mm 2 m/s 739 mmHg 91%
01:00 +13°C° 0.4 mm 2 m/s 739 mmHg 90%
02:00 +12°C° 0.1 mm 2 m/s 739 mmHg 89%
03:00 +12°C° 0.1 mm 2 m/s 739 mmHg 88%
04:00 +12°C° 0.1 mm 2 m/s 739 mmHg 87%
05:00 +12°C° 0 mm 2 m/s 739 mmHg 85%
06:00 +13°C° 0 mm 2 m/s 739 mmHg 82%
07:00 +14°C° 0 mm 2 m/s 739 mmHg 80%
08:00 +15°C° 0.1 mm 2 m/s 739 mmHg 76%
09:00 +16°C° 0.1 mm 2 m/s 740 mmHg 72%
10:00 +16°C° 0.1 mm 3 m/s 740 mmHg 68%
11:00 +17°C° 0.3 mm 3 m/s 740 mmHg 68%
12:00 +17°C° 0.3 mm 3 m/s 740 mmHg 67%
13:00 +17°C° 0.3 mm 4 m/s 740 mmHg 67%
14:00 +17°C° 0.1 mm 4 m/s 740 mmHg 65%
15:00 +18°C° 0.1 mm 4 m/s 739 mmHg 62%
16:00 +18°C° 0.1 mm 4 m/s 739 mmHg 60%
17:00 +17°C° 0 mm 4 m/s 739 mmHg 63%
18:00 +17°C° 0 mm 3 m/s 739 mmHg 65%
19:00 +16°C° 0 mm 3 m/s 739 mmHg 68%
20:00 +14°C° 0 mm 3 m/s 740 mmHg 71%
21:00 +14°C° 0 mm 2 m/s 740 mmHg 73%
22:00 +13°C° 0 mm 2 m/s 740 mmHg 76%
23:00 +12°C° 0 mm 2 m/s 740 mmHg 77%

13 Iulie, Luni

Timp Temperatura Precipitaţii Vânt Presiune Umiditate
00:00 +12°C° 0 mm 2 m/s 740 mmHg 79%
01:00 +10°C° 0 mm 2 m/s 740 mmHg 80%
02:00 +10°C° 0 mm 2 m/s 740 mmHg 83%
03:00 +9°C° 0 mm 2 m/s 739 mmHg 85%
04:00 +9°C° 0 mm 2 m/s 739 mmHg 87%
05:00 +10°C° 0 mm 2 m/s 739 mmHg 83%
06:00 +13°C° 0 mm 2 m/s 739 mmHg 79%
07:00 +13°C° 0 mm 3 m/s 739 mmHg 75%
08:00 +14°C° 0.1 mm 3 m/s 739 mmHg 71%
09:00 +16°C° 0.1 mm 3 m/s 739 mmHg 68%
10:00 +17°C° 0.1 mm 4 m/s 739 mmHg 64%
11:00 +18°C° 0.2 mm 4 m/s 739 mmHg 62%
12:00 +19°C° 0.2 mm 4 m/s 738 mmHg 60%
13:00 +19°C° 0.2 mm 4 m/s 738 mmHg 57%
14:00 +19°C° 0.2 mm 4 m/s 738 mmHg 60%
15:00 +18°C° 0.2 mm 3 m/s 737 mmHg 63%
16:00 +18°C° 0.2 mm 3 m/s 737 mmHg 66%
17:00 +17°C° 0 mm 3 m/s 737 mmHg 69%
18:00 +17°C° 0 mm 3 m/s 737 mmHg 71%
19:00 +16°C° 0 mm 2 m/s 737 mmHg 74%
20:00 +15°C° 0 mm 2 m/s 737 mmHg 78%
21:00 +14°C° 0 mm 2 m/s 737 mmHg 82%
22:00 +13°C° 0 mm 2 m/s 737 mmHg 87%
23:00 +13°C° 0 mm 2 m/s 737 mmHg 89%

14 Iulie, Marţi

Timp Temperatura Precipitaţii Vânt Presiune Umiditate
00:00 +13°C° 0 mm 2 m/s 737 mmHg 91%
01:00 +12°C° 0 mm 2 m/s 737 mmHg 93%
02:00 +12°C° 0 mm 2 m/s 736 mmHg 93%
03:00 +12°C° 0 mm 2 m/s 736 mmHg 94%
04:00 +10°C° 0 mm 2 m/s 736 mmHg 94%
05:00 +13°C° 0 mm 2 m/s 736 mmHg 89%
06:00 +14°C° 0 mm 2 m/s 736 mmHg 83%
07:00 +15°C° 0 mm 2 m/s 737 mmHg 77%
08:00 +17°C° 0.1 mm 2 m/s 736 mmHg 70%
09:00 +18°C° 0.1 mm 2 m/s 736 mmHg 63%
10:00 +20°C° 0.1 mm 2 m/s 736 mmHg 56%
11:00 +20°C° 0.1 mm 2 m/s 736 mmHg 55%
12:00 +21°C° 0.1 mm 3 m/s 736 mmHg 53%
13:00 +21°C° 0.1 mm 3 m/s 736 mmHg 51%
14:00 +21°C° 0.2 mm 3 m/s 736 mmHg 52%
15:00 +21°C° 0.2 mm 3 m/s 735 mmHg 52%
16:00 +21°C° 0.2 mm 3 m/s 735 mmHg 53%
17:00 +20°C° 0 mm 3 m/s 735 mmHg 57%
18:00 +19°C° 0 mm 2 m/s 735 mmHg 61%
19:00 +18°C° 0 mm 2 m/s 735 mmHg 65%
20:00 +18°C° 0 mm 1 m/s 735 mmHg 68%
21:00 +16°C° 0 mm 1 m/s 735 mmHg 71%
22:00 +15°C° 0 mm 1 m/s 736 mmHg 74%
23:00 +15°C° 0 mm 1 m/s 735 mmHg 76%
Arată mai mult